Hourly Weather Roundup
Issued by NWS Central Illinois

Home | Current Version | Previous Version | Text Only | Print | Product List | Glossary On
Versions: 1 2 3 4 5 6 7 8 9 10 11 12 13 14 15 16 17 18 19 20 21 22 23 24 25 26 27 28 29 30 31 32 33 34 35 36 37 38 39 40 41 42 43 44 45 46 47 48 49 50
000
NZUS43 KILX 102010
HWRILX

AREA WEATHER ROUNDUP
NATIONAL WEATHER SERVICE, LINCOLN IL
200 PM CST WED FEB 10 2016


CITY           SKY/WX    TMP DP  RH WIND       PRES   REMARKS
BLOOMINGTON    CLOUDY    20   4  50 W10       30.05S WCI   9
CHAMPAIGN      MOSUNNY   19   7  59 W14       30.05F WCI   6
DANVILLE       CLOUDY    16   6  65 W10       30.03S WCI   3
DECATUR        MOSUNNY   21   6  52 W12       30.07F WCI   9
EFFINGHAM      CLOUDY    21   7  55 SW12      30.12F WCI   9
FLORA          PTSUNNY   24   8  50 W10       30.14R WCI  13
GALESBURG      MOSUNNY   18   5  58 W7        30.07S WCI   8
JACKSONVILLE   CLOUDY    21  12  68 W6        30.09F WCI  14
LACON          CLOUDY    19   3  49 W12       30.06S WCI   7
LAWRENCEVILLE  MOSUNNY   21   7  54 NW12      30.12F WCI   9
LITCHFIELD     LGT SNOW  19  10  68 W7        30.10F WCI  10
$$


CITY           SKY/WX    TMP DP  RH WIND       PRES   REMARKS
LINCOLN        CLOUDY    20   6  54 W8        30.09R WCI  11
MACOMB         CLOUDY    18  11  73 W8        30.10F WCI   7
MATTOON        MOSUNNY   19   5  54 W10       30.07F WCI   7
MT CARMEL AP   CLOUDY    23   9  54 W13       30.12S WCI  11
OLNEY-NOBLE AP CLOUDY    21   9  58 W10       30.12F WCI  10
PARIS          PTSUNNY   18   8  63 W10       30.08S WCI   7
PEORIA         CLOUDY    20   2  45 W12       30.08S WCI   8
PONTIAC        PTSUNNY   19   8  62 W9        30.05S WCI   8
RANTOUL        CLOUDY    20   9  61 NW13      30.05S WCI   8
ROBINSON       PTSUNNY   20   8  59 W12       30.12F WCI   8
SPRINGFIELD    CLOUDY    20   5  52 W12       30.10F WCI   8
TAYLORVILLE    CLOUDY    19   9  63 W14       30.10S WCI   6
$$

...REGIONAL REPORTS...


CITY           SKY/WX    TMP DP  RH WIND       PRES   REMARKS
CHICAGO O`HARE PTSUNNY   17   3  54 NW12G20   30.01S WCI   4
KANKAKEE       PTSUNNY   17   6  59 NW10G16   30.04S WCI   5
MOLINE         PTSUNNY   18   2  49 NW7       30.07F WCI   9
MOUNT STERLING LGT SNOW  17  11  80 W3        30.08S
MOUNT VERNON   CLOUDY    23   9  54 W9        30.14F WCI  13
PITTSFIELD     LGT SNOW  19  15  82 CALM      30.10F
QUINCY         LGT SNOW  19  13  77 NE3       30.08S
ROCKFORD       PTSUNNY   16   2  54 NW9       30.05S WCI   4
$$


CITY           SKY/WX    TMP DP  RH WIND       PRES   REMARKS
BURLINGTON     LGT SNOW  17  12  80 NW3       30.08S
CEDAR RAPIDS   CLOUDY    15   4  61 VRB6      30.05F WCI   6
DES MOINES     FLURRIES  19  12  74 E8        30.03F WCI   9
KIRKSVILLE     CLOUDY    21  16  81 SE8       30.04F WCI  11
OTTUMWA        CLOUDY    18  13  80 E5        30.06F WCI  11
ST LOUIS       LGT SNOW  22  15  75 SW5       30.12F VSB 1   WCI  16
$$


CITY           SKY/WX    TMP DP  RH WIND       PRES   REMARKS
TERRE HAUTE    MOSUNNY   18   6  59 W14       30.08F WCI   4
EVANSVILLE     CLOUDY    24   9  52 SW9       30.14F WCI  14
INDIANAPOLIS   PTSUNNY   16   5  62 W10       30.02F WCI   4
LAFAYETTE      CLOUDY    15   5  64 W14       30.04S WCI   0
MADISON        PTSUNNY   12  -2  53 N12G18    30.02S WCI  -2
MILWAUKEE      PTSUNNY   15  -1  49 NW12      30.00S WCI   2
$$





USA.gov is the U.S. government's official web portal to all federal, state and local government web resources and services.